This demonstration page uses our WeatherBlox Daily Observations layout. Learn more.

Left ArrowRight Arrow

Hourly Observations for October 20, 2019

Temp ( °F °C ) Dew Point ( °F °C ) Humidity (%) Winds ( mph kmh ) Pressure ( in mb ) Visibility ( mi km ) Precip ( " mm )
12:29 am 00:29 Cloudy 57 13.9 54 12.2 90 90 NNE 8 13 29.75 1007 10 16 0.02 0.51
12:53 am 00:53 Cloudy with Mist and Fog 57 13.9 54 12.2 90 90 NNE 9 15 29.74 1007 5 8 0.03 0.76
1:46 am 01:46 Cloudy with Light Rain 57 13.9 55 12.8 93 93 NNW 3 6 29.76 1008 4 6 0.01 0.25
1:53 am 01:53 Cloudy with Light Rain 57 13.9 55 12.8 93 93 NNW 5 7 29.75 1008 4 6 0.01 0.25
2:48 am 02:48 Cloudy with Light Rain 57 14 55 13 94 94 NW 5 7 29.77 1008 9 14 0.01 0.25
2:53 am 02:53 Cloudy 57 13.9 56 13.3 96 96 NW 3 6 29.76 1008 10 16 0.01 0.25
3:32 am 03:32 Cloudy with Light Rain 57 13.9 56 13.3 96 96 NW 3 6 29.78 1008 6 10 0.00 0.00
3:44 am 03:44 Cloudy with Light Rain 57 13.9 56 13.3 96 96 NW 5 7 29.77 1008 6 10 0.00 0.00
3:53 am 03:53 Cloudy with Light Rain 57 13.9 56 13.3 96 96 NW 5 7 29.77 1008 7 11 0.00 0.00
4:07 am 04:07 Cloudy with Light Rain 58 14.4 56 13.3 93 93 Calm 29.77 1008 10 16 0.00 0.00
4:51 am 04:51 Cloudy 57 14 55 13 94 94 NW 6 9 29.78 1008 10 16 0.00 0.00
4:53 am 04:53 Cloudy 58 14.4 56 13.3 93 93 NW 6 9 29.77 1008 10 16 0.00 0.00
5:04 am 05:04 Cloudy 58 14.4 56 13.3 93 93 NW 8 13 29.78 1008 10 16 0.00 0.00
5:53 am 05:53 Cloudy 58 14.4 56 13.3 93 93 WNW 8 13 29.80 1009 10 16 0.00 0.00
6:53 am 06:53 Cloudy 58 14.4 56 13.3 93 93 W 6 9 29.83 1010 10 16 0.00 0.00
7:53 am 07:53 Cloudy 58 14.4 56 13.3 93 93 WNW 7 11 29.85 1011 10 16 0.00 0.00
8:53 am 08:53 Cloudy 59 15 57 13.9 93 93 W 6 9 29.88 1012 10 16 0.00 0.00
9:53 am 09:53 Cloudy 60 15.6 57 13.9 90 90 WNW 6 9 29.90 1013 10 16 0.00 0.00
10:53 am 10:53 Cloudy 62 16.7 58 14.4 86 86 NNW 9 15 29.91 1013 10 16 0.00 0.00
11:53 am 11:53 Cloudy 64 17.8 58 14.4 81 81 NNW 9 15 29.93 1013 10 16 0.00 0.00
12:53 pm 12:53 Cloudy 66 18.9 58 14.4 75 75 WNW 9 15 29.93 1014 10 16 0.00 0.00
1:53 pm 13:53 Cloudy 68 20 59 15 73 73 WNW 8 13 29.92 1013 10 16 0.00 0.00
2:53 pm 14:53 Cloudy 69 20.6 59 15 70 70 WNW 7 11 29.91 1013 10 16 0.00 0.00
3:53 pm 15:53 Mostly Cloudy 69 20.6 59 15 70 70 NNW 7 11 29.91 1013 10 16 0.00 0.00
4:53 pm 16:53 Mostly Cloudy 71 21.7 60 15.6 68 68 WNW 7 11 29.92 1013 10 16 0.00 0.00
5:00 pm 17:00 Partly Cloudy 71 21.7 60 15.6 68 68 W 5 7 29.91 1013 10 16 0.00 0.00
5:53 pm 17:53 Partly Cloudy 71 21.7 59 15 66 66 W 7 11 29.92 1013 10 16 0.00 0.00
6:53 pm 18:53 Sunny 68 20 59 15 73 73 W 3 6 29.93 1014 10 16 0.00 0.00
7:53 pm 19:53 Clear 63 17.2 60 15.6 90 90 Calm 29.93 1014 10 16 0.00 0.00
8:53 pm 20:53 Clear 61 16.1 59 15 93 93 Calm 29.94 1014 10 16 0.00 0.00
9:53 pm 21:53 Clear 61 16.1 58 14.4 90 90 Calm 29.95 1014 10 16 0.00 0.00
10:53 pm 22:53 Clear 58 14.4 57 13.9 97 97 Calm 29.97 1015 10 16 0.00 0.00
11:53 pm 23:53 Clear 58 14.4 56 13.3 93 93 Calm 29.97 1015 10 16 0.00 0.00

Powered by AerisWeather